User: anonymous   Login
Location: Skalnate Pleso
(49.1889°N, 20.2450°E)
Time: 22:35:21
(UTC+02:00)
Language:

Iridium 45 - Orbit

View from above orbital plane
View from above orbital plane
View from above satellite
View from above satellite

Ground track
Ground track

The orbit data is extracted from the following two-line orbital elements,

1 25104U 97082A   17088.87459339 +.00000032 +00000-0 +44094-5 0  9991
2 25104 086.3952 320.4005 0001911 114.3908 245.7487 14.34217959008740
Epoch (UTC): 29 March 2017 20:59:24
Eccentricity: 0.0001911
inclination: 86.3952°
perigee height: 776 km
apogee height: 779 km
right ascension of ascending node: 320.4005°
argument of perigee: 114.3908°
revolutions per day: 14.34217959
mean anomaly at epoch: 245.7487°
orbit number at epoch: 874

The dashed part of the orbit path shows where the satellite is in the earth's shadow,  

DLR